• In United Kingdom
  • List of Countries
  • For 7 days
  • Water Temperature
  • Satellite Maps
  • Weather Map
  • Weather Widgets
  • user-avatar
    Login

    Hourly Weather Kagul

    Today, 22 September, Friday

    Time Temperature Precipitation Wind Pressure Humidity
    00:00 +16°C° 0 mm 3 mps 754 mmHg 61%
    01:00 +15°C° 0 mm 2 mps 754 mmHg 63%
    02:00 +15°C° 0 mm 2 mps 754 mmHg 64%
    03:00 +14°C° 0 mm 2 mps 754 mmHg 65%
    04:00 +14°C° 0 mm 2 mps 754 mmHg 67%
    05:00 +14°C° 0 mm 2 mps 754 mmHg 69%
    06:00 +15°C° 0 mm 2 mps 754 mmHg 67%
    07:00 +15°C° 0 mm 2 mps 754 mmHg 65%
    08:00 +16°C° 0 mm 3 mps 754 mmHg 63%
    09:00 +18°C° 0 mm 3 mps 755 mmHg 60%
    10:00 +19°C° 0 mm 4 mps 755 mmHg 56%
    11:00 +21°C° 0 mm 4 mps 755 mmHg 52%
    12:00 +21°C° 0.1 mm 4 mps 755 mmHg 50%
    13:00 +22°C° 0.1 mm 4 mps 755 mmHg 49%
    14:00 +23°C° 0.1 mm 4 mps 755 mmHg 47%
    15:00 +22°C° 0.4 mm 4 mps 755 mmHg 51%
    16:00 +21°C° 0.4 mm 5 mps 755 mmHg 55%
    17:00 +20°C° 0.4 mm 5 mps 755 mmHg 59%
    18:00 +19°C° 0.4 mm 5 mps 755 mmHg 66%
    19:00 +18°C° 0.4 mm 4 mps 755 mmHg 72%
    20:00 +15°C° 0.4 mm 4 mps 756 mmHg 79%
    21:00 +15°C° 0.1 mm 4 mps 756 mmHg 81%
    22:00 +14°C° 0.1 mm 4 mps 756 mmHg 82%
    23:00 +14°C° 0.1 mm 4 mps 757 mmHg 84%

    Tomorrow, 23 September, Saturday

    Time Temperature Precipitation Wind Pressure Humidity
    00:00 +13°C° 0.1 mm 4 mps 757 mmHg 85%
    01:00 +13°C° 0.1 mm 3 mps 757 mmHg 85%
    02:00 +13°C° 0.1 mm 3 mps 758 mmHg 86%
    03:00 +13°C° 0.1 mm 3 mps 758 mmHg 86%
    04:00 +13°C° 0.1 mm 2 mps 758 mmHg 87%
    05:00 +13°C° 0.1 mm 2 mps 758 mmHg 87%
    06:00 +14°C° 0 mm 2 mps 758 mmHg 82%
    07:00 +15°C° 0 mm 2 mps 758 mmHg 76%
    08:00 +16°C° 0 mm 2 mps 759 mmHg 71%
    09:00 +18°C° 0 mm 2 mps 759 mmHg 64%
    10:00 +19°C° 0 mm 2 mps 759 mmHg 56%
    11:00 +21°C° 0 mm 2 mps 759 mmHg 49%
    12:00 +23°C° 0.1 mm 2 mps 759 mmHg 46%
    13:00 +23°C° 0.1 mm 2 mps 759 mmHg 42%
    14:00 +24°C° 0.1 mm 2 mps 758 mmHg 39%
    15:00 +24°C° 0 mm 1 mps 758 mmHg 39%
    16:00 +24°C° 0 mm 1 mps 759 mmHg 39%
    17:00 +24°C° 0 mm 1 mps 759 mmHg 39%
    18:00 +22°C° 0 mm 1 mps 759 mmHg 43%
    19:00 +21°C° 0 mm 1 mps 759 mmHg 46%
    20:00 +20°C° 0 mm 1 mps 759 mmHg 50%
    21:00 +19°C° 0 mm 1 mps 759 mmHg 51%
    22:00 +19°C° 0 mm 1 mps 760 mmHg 53%
    23:00 +18°C° 0 mm 1 mps 760 mmHg 54%

    Day after tomorrow, 24 September, Sunday

    Time Temperature Precipitation Wind Pressure Humidity
    00:00 +18°C° 0 mm 1 mps 760 mmHg 55%
    01:00 +18°C° 0 mm 1 mps 760 mmHg 57%
    02:00 +16°C° 0 mm 1 mps 760 mmHg 58%
    03:00 +16°C° 0 mm 1 mps 760 mmHg 60%
    04:00 +15°C° 0 mm 1 mps 760 mmHg 62%
    05:00 +15°C° 0 mm 1 mps 760 mmHg 64%
    06:00 +16°C° 0 mm 1 mps 760 mmHg 61%
    07:00 +18°C° 0 mm 1 mps 761 mmHg 58%
    08:00 +19°C° 0 mm 1 mps 761 mmHg 54%
    09:00 +21°C° 0 mm 1 mps 761 mmHg 49%
    10:00 +23°C° 0 mm 1 mps 761 mmHg 43%
    11:00 +24°C° 0 mm 1 mps 761 mmHg 38%
    12:00 +25°C° 0 mm 1 mps 761 mmHg 36%
    13:00 +25°C° 0 mm 1 mps 761 mmHg 33%
    14:00 +26°C° 0 mm 1 mps 761 mmHg 31%
    15:00 +26°C° 0 mm 1 mps 761 mmHg 31%
    16:00 +25°C° 0 mm 1 mps 761 mmHg 32%
    17:00 +25°C° 0 mm 1 mps 761 mmHg 32%
    18:00 +24°C° 0 mm 2 mps 762 mmHg 36%
    19:00 +21°C° 0 mm 2 mps 762 mmHg 40%
    20:00 +20°C° 0 mm 3 mps 762 mmHg 44%
    21:00 +19°C° 0 mm 2 mps 762 mmHg 49%
    22:00 +18°C° 0 mm 2 mps 763 mmHg 54%
    23:00 +17°C° 0 mm 2 mps 763 mmHg 58%

    25 September, Monday

    Time Temperature Precipitation Wind Pressure Humidity
    00:00 +18°C° 0 mm 1 mps 763 mmHg 61%
    01:00 +18°C° 0 mm 1 mps 763 mmHg 63%
    02:00 +16°C° 0 mm 1 mps 763 mmHg 65%
    03:00 +16°C° 0 mm 1 mps 763 mmHg 67%
    04:00 +16°C° 0 mm 1 mps 763 mmHg 69%
    05:00 +15°C° 0 mm 2 mps 763 mmHg 70%
    06:00 +17°C° 0 mm 2 mps 763 mmHg 68%
    07:00 +18°C° 0 mm 2 mps 764 mmHg 65%
    08:00 +19°C° 0 mm 3 mps 764 mmHg 63%
    09:00 +20°C° 0 mm 3 mps 764 mmHg 56%
    10:00 +22°C° 0 mm 3 mps 763 mmHg 50%
    11:00 +25°C° 0 mm 3 mps 763 mmHg 43%
    12:00 +25°C° 0 mm 3 mps 763 mmHg 41%
    13:00 +26°C° 0 mm 3 mps 763 mmHg 38%
    14:00 +27°C° 0 mm 4 mps 762 mmHg 36%
    15:00 +26°C° 0 mm 3 mps 762 mmHg 36%
    16:00 +26°C° 0 mm 3 mps 762 mmHg 37%
    17:00 +25°C° 0 mm 3 mps 762 mmHg 38%
    18:00 +24°C° 0 mm 3 mps 762 mmHg 41%
    19:00 +22°C° 0 mm 3 mps 763 mmHg 45%
    20:00 +21°C° 0 mm 3 mps 763 mmHg 48%
    21:00 +20°C° 0 mm 3 mps 763 mmHg 51%
    22:00 +20°C° 0 mm 3 mps 762 mmHg 54%
    23:00 +19°C° 0 mm 3 mps 762 mmHg 57%

    26 September, Tuesday

    Time Temperature Precipitation Wind Pressure Humidity
    00:00 +19°C° 0 mm 4 mps 762 mmHg 56%
    01:00 +19°C° 0 mm 4 mps 762 mmHg 55%
    02:00 +19°C° 0 mm 4 mps 762 mmHg 55%
    03:00 +19°C° 0.3 mm 5 mps 762 mmHg 54%
    04:00 +19°C° 0.3 mm 5 mps 762 mmHg 53%
    05:00 +17°C° 0.3 mm 5 mps 762 mmHg 53%
    06:00 +17°C° 0.2 mm 6 mps 762 mmHg 52%
    07:00 +19°C° 0.2 mm 6 mps 763 mmHg 51%
    08:00 +19°C° 0.2 mm 6 mps 763 mmHg 50%
    09:00 +20°C° 0 mm 6 mps 763 mmHg 45%
    10:00 +21°C° 0 mm 6 mps 763 mmHg 41%
    11:00 +22°C° 0 mm 6 mps 763 mmHg 36%
    12:00 +23°C° 0 mm 6 mps 763 mmHg 34%
    13:00 +23°C° 0 mm 6 mps 763 mmHg 32%
    14:00 +24°C° 0 mm 6 mps 762 mmHg 31%
    15:00 +23°C° 0 mm 6 mps 763 mmHg 31%
    16:00 +23°C° 0 mm 6 mps 763 mmHg 32%
    17:00 +22°C° 0 mm 6 mps 763 mmHg 32%
    18:00 +20°C° 0 mm 5 mps 763 mmHg 35%
    19:00 +19°C° 0 mm 4 mps 763 mmHg 37%
    20:00 +17°C° 0 mm 4 mps 763 mmHg 40%
    21:00 +17°C° 0 mm 4 mps 763 mmHg 40%
    22:00 +15°C° 0 mm 4 mps 763 mmHg 41%
    23:00 +14°C° 0 mm 4 mps 763 mmHg 42%

    27 September, Wednesday

    Time Temperature Precipitation Wind Pressure Humidity
    00:00 +14°C° 0 mm 4 mps 764 mmHg 43%
    01:00 +14°C° 0 mm 4 mps 764 mmHg 44%
    02:00 +13°C° 0 mm 4 mps 764 mmHg 45%
    03:00 +13°C° 0 mm 4 mps 764 mmHg 46%
    04:00 +13°C° 0 mm 4 mps 764 mmHg 47%
    05:00 +13°C° 0 mm 5 mps 764 mmHg 48%
    06:00 +14°C° 0 mm 5 mps 764 mmHg 46%
    07:00 +14°C° 0 mm 5 mps 764 mmHg 45%
    08:00 +15°C° 0 mm 5 mps 764 mmHg 44%
    09:00 +17°C° 0 mm 5 mps 764 mmHg 40%
    10:00 +19°C° 0 mm 5 mps 765 mmHg 37%
    11:00 +21°C° 0 mm 5 mps 765 mmHg 33%
    12:00 +21°C° 0 mm 5 mps 765 mmHg 32%
    13:00 +22°C° 0 mm 5 mps 764 mmHg 31%
    14:00 +23°C° 0 mm 5 mps 764 mmHg 30%
    15:00 +22°C° 0 mm 5 mps 764 mmHg 31%
    16:00 +22°C° 0 mm 5 mps 764 mmHg 32%
    17:00 +21°C° 0 mm 4 mps 764 mmHg 33%
    18:00 +20°C° 0 mm 4 mps 765 mmHg 37%
    19:00 +19°C° 0 mm 3 mps 765 mmHg 40%
    20:00 +17°C° 0 mm 3 mps 765 mmHg 44%
    21:00 +17°C° 0 mm 3 mps 765 mmHg 46%
    22:00 +16°C° 0 mm 3 mps 765 mmHg 48%
    23:00 +16°C° 0 mm 3 mps 766 mmHg 51%
    Show more